Location: Cella
(44.7333°N, 10.5667°E)
Time: 05:27:33
(UTC+00:00)

Resurs 01 Rocket - Pass Details

Date: 03 March 2021
Orbit: 635 x 643 km, 98.0° (Epoch: 13 April)

Event Time Altitude Azimuth Distance (km) Brightness Sun altitude
Exits shadow 19:12:41 23° 26° (NNE) 1,365 3.2 -22.8°
Drops below altitude 10° 19:14:45 10° 6° (N) 2,033 4.3 -23.1°
Sets 19:17:07 0° 356° (N) 2,947 5.3 -23.5°
